N636CX KLAX-KNRS

Flight info

Callsign N636CX
Flight time 0h 37m
Altitude 9000
Route SLI8 SLI ALBAS V25 PACIF CARDI MZB
Aircraft S97/L-VGD/C

Departure

Time 2026-04-25 19:09
Airport Los Angeles International Airport (KLAX)

Arrival

Time 2026-04-25 19:46
Airport Naval Outlying Field Imperial Beach (Ream Field) (KNRS)
Time Latitude Longitude Altitude Speed Heading
2026-04-25 19:04 33.93597 -118.38422 129 ft 26 kts 87°
2026-04-25 19:04 33.93612 -118.38342 97 ft 10 kts 83°
2026-04-25 19:05 33.93644 -118.38283 97 ft 0 kts
2026-04-25 19:07 33.93728 -118.38371 98 ft 0 kts 259°
2026-04-25 19:08 33.93729 -118.38367 98 ft 0 kts 259°
2026-04-25 19:08 33.93691 -118.38719 101 ft 102 kts 264°
2026-04-25 19:09 33.93244 -118.43001 753 ft 207 kts 252°
2026-04-25 19:09 33.92747 -118.43958 961 ft 209 kts 218°
2026-04-25 19:09 33.89721 -118.46182 1585 ft 224 kts 211°
2026-04-25 19:10 33.88411 -118.47176 1907 ft 224 kts 211°
2026-04-25 19:10 33.87091 -118.48183 2279 ft 223 kts 211°
2026-04-25 19:10 33.85779 -118.49192 2648 ft 223 kts 211°
2026-04-25 19:10 33.84477 -118.50195 3015 ft 224 kts 211°
2026-04-25 19:11 33.83164 -118.51216 3390 ft 224 kts 212°
2026-04-25 19:11 33.81864 -118.52222 3759 ft 223 kts 211°
2026-04-25 19:11 33.80564 -118.53212 4128 ft 221 kts 211°
2026-04-25 19:11 33.79259 -118.54189 4499 ft 219 kts 212°
2026-04-25 19:12 33.77950 -118.55150 4868 ft 219 kts 211°
2026-04-25 19:12 33.76522 -118.55467 5228 ft 214 kts 169°
2026-04-25 19:12 33.75055 -118.55096 5618 ft 214 kts 172°
2026-04-25 19:12 33.73582 -118.54772 5990 ft 215 kts 171°
2026-04-25 19:13 33.72124 -118.54447 6356 ft 215 kts 172°
2026-04-25 19:13 33.70649 -118.54105 6724 ft 214 kts 172°
2026-04-25 19:13 33.69200 -118.53759 7086 ft 213 kts 172°
2026-04-25 19:13 33.67754 -118.53387 7451 ft 212 kts 167°
2026-04-25 19:14 33.66677 -118.52243 7794 ft 210 kts 115°
2026-04-25 19:14 33.66528 -118.51673 7930 ft 210 kts 104°
2026-04-25 19:14 33.66053 -118.48800 8558 ft 212 kts 104°
2026-04-25 19:14 33.65758 -118.47038 8839 ft 220 kts 104°
2026-04-25 19:15 33.65451 -118.45218 8964 ft 228 kts 104°
2026-04-25 19:15 33.65132 -118.43310 8975 ft 240 kts 104°
2026-04-25 19:15 33.64799 -118.41326 8980 ft 245 kts 104°
2026-04-25 19:15 33.64457 -118.39285 8977 ft 249 kts 104°
2026-04-25 19:16 33.64115 -118.37253 8972 ft 251 kts 104°
2026-04-25 19:16 33.63765 -118.35170 8971 ft 252 kts 104°
2026-04-25 19:16 33.63418 -118.33113 8969 ft 253 kts 104°
2026-04-25 19:16 33.63067 -118.31036 8969 ft 254 kts 104°
2026-04-25 19:17 33.62718 -118.28972 8966 ft 254 kts 104°
2026-04-25 19:17 33.62367 -118.26893 8969 ft 254 kts 104°
2026-04-25 19:17 33.62013 -118.24796 8970 ft 255 kts 104°
2026-04-25 19:17 33.61660 -118.22719 8969 ft 255 kts 104°
2026-04-25 19:18 33.61309 -118.20637 8968 ft 255 kts 104°
2026-04-25 19:18 33.60952 -118.18538 8968 ft 255 kts 104°
2026-04-25 19:18 33.60606 -118.16460 8964 ft 255 kts 103°
2026-04-25 19:18 33.60284 -118.14370 8965 ft 256 kts 102°
2026-04-25 19:19 33.59985 -118.12265 8968 ft 256 kts 101°
2026-04-25 19:19 33.59712 -118.10173 8969 ft 256 kts 101°
2026-04-25 19:19 33.59458 -118.08042 8971 ft 256 kts 100°
2026-04-25 19:19 33.59306 -118.06657 8971 ft 256 kts 99°
2026-04-25 19:20 33.59027 -118.03812 8971 ft 256 kts 98°
2026-04-25 19:20 33.58847 -118.01702 8974 ft 256 kts 97°
2026-04-25 19:20 33.58690 -117.99560 8972 ft 257 kts 96°
2026-04-25 19:20 33.58557 -117.97422 8970 ft 257 kts 96°
2026-04-25 19:21 33.58448 -117.95287 8968 ft 258 kts 95°
2026-04-25 19:21 33.58302 -117.90988 8968 ft 258 kts 93°
2026-04-25 19:21 33.58266 -117.88866 8967 ft 258 kts 92°
2026-04-25 19:22 33.58254 -117.86700 8968 ft 258 kts 91°
2026-04-25 19:22 33.58264 -117.84558 8967 ft 259 kts 90°
2026-04-25 19:22 33.58361 -117.80245 8967 ft 259 kts 89°
2026-04-25 19:23 33.58446 -117.78078 8969 ft 260 kts 88°
2026-04-25 19:23 33.58382 -117.73782 8939 ft 251 kts 117°
2026-04-25 19:23 33.57266 -117.72311 8968 ft 235 kts 154°
2026-04-25 19:24 33.55853 -117.71324 8972 ft 238 kts 154°
2026-04-25 19:24 33.54407 -117.70326 8966 ft 240 kts 155°
2026-04-25 19:24 33.51323 -117.70115 8974 ft 225 kts 193°
2026-04-25 19:25 33.48212 -117.70801 8965 ft 228 kts 194°
2026-04-25 19:25 33.46628 -117.71151 8964 ft 229 kts 194°
2026-04-25 19:25 33.45055 -117.71498 8970 ft 230 kts 194°
2026-04-25 19:26 33.43485 -117.71844 8967 ft 230 kts 194°
2026-04-25 19:26 33.41906 -117.72191 8968 ft 230 kts 194°
2026-04-25 19:26 33.40332 -117.72538 8969 ft 230 kts 194°
2026-04-25 19:26 33.38763 -117.72884 8962 ft 230 kts 194°
2026-04-25 19:27 33.37169 -117.73194 8974 ft 232 kts 185°
2026-04-25 19:27 33.36144 -117.72862 8988 ft 237 kts 152°
2026-04-25 19:27 33.34668 -117.70837 8976 ft 246 kts 134°
2026-04-25 19:27 33.33559 -117.69261 8961 ft 248 kts 134°
2026-04-25 19:28 33.32450 -117.67672 8963 ft 249 kts 134°
2026-04-25 19:28 33.31330 -117.66073 8967 ft 250 kts 134°
2026-04-25 19:28 33.30218 -117.64480 8959 ft 250 kts 134°
2026-04-25 19:28 33.29104 -117.62892 8963 ft 250 kts 133°
2026-04-25 19:29 33.27989 -117.61298 8969 ft 251 kts 133°
2026-04-25 19:29 33.26859 -117.59682 8977 ft 252 kts 134°
2026-04-25 19:29 33.25736 -117.58083 8962 ft 251 kts 133°
2026-04-25 19:29 33.24620 -117.56487 8965 ft 251 kts 133°
2026-04-25 19:30 33.23484 -117.54868 8973 ft 252 kts 133°
2026-04-25 19:30 33.22371 -117.53280 8971 ft 252 kts 134°
2026-04-25 19:30 33.21243 -117.51672 8974 ft 252 kts 134°
2026-04-25 19:30 33.20106 -117.50053 8974 ft 252 kts 134°
2026-04-25 19:31 33.18991 -117.48464 8976 ft 252 kts 134°
2026-04-25 19:31 33.17852 -117.46840 8979 ft 252 kts 134°
2026-04-25 19:31 33.16730 -117.45244 8979 ft 252 kts 134°
2026-04-25 19:31 33.15597 -117.43636 8954 ft 253 kts 134°
2026-04-25 19:32 33.14460 -117.42033 8940 ft 253 kts 136°
2026-04-25 19:32 33.13050 -117.40921 8947 ft 239 kts 162°
2026-04-25 19:32 33.11523 -117.40065 8944 ft 242 kts 160°
2026-04-25 19:32 33.10495 -117.39494 8942 ft 242 kts 159°
2026-04-25 19:33 33.08473 -117.38369 8941 ft 243 kts 159°
2026-04-25 19:33 33.06919 -117.37503 8943 ft 243 kts 160°
2026-04-25 19:33 33.05396 -117.36655 8941 ft 244 kts 159°
2026-04-25 19:33 33.03852 -117.35798 8941 ft 244 kts 159°
2026-04-25 19:34 33.02311 -117.34940 8941 ft 244 kts 160°
2026-04-25 19:34 33.00760 -117.34077 8940 ft 243 kts 160°
2026-04-25 19:34 32.99229 -117.33226 8943 ft 243 kts 160°
2026-04-25 19:34 32.97697 -117.32372 8943 ft 243 kts 160°
2026-04-25 19:35 32.96155 -117.31518 8936 ft 244 kts 160°
2026-04-25 19:35 32.94540 -117.30631 8215 ft 267 kts 159°
2026-04-25 19:35 32.92844 -117.29701 7677 ft 269 kts 158°
2026-04-25 19:35 32.91167 -117.28773 7438 ft 264 kts 158°
2026-04-25 19:36 32.89516 -117.27862 7189 ft 262 kts 158°
2026-04-25 19:36 32.87854 -117.26923 6940 ft 262 kts 154°
2026-04-25 19:36 32.86648 -117.25341 6709 ft 265 kts 112°
2026-04-25 19:36 32.86155 -117.23243 6689 ft 258 kts 109°
2026-04-25 19:37 32.85593 -117.21266 6914 ft 252 kts 110°
2026-04-25 19:37 32.85036 -117.19282 6951 ft 254 kts 110°
2026-04-25 19:37 32.84467 -117.17266 6951 ft 256 kts 110°
2026-04-25 19:37 32.83902 -117.15263 6953 ft 257 kts 110°
2026-04-25 19:38 32.83329 -117.13241 6956 ft 258 kts 110°
2026-04-25 19:38 32.82760 -117.11231 6957 ft 258 kts 109°
2026-04-25 19:38 32.82185 -117.09204 6958 ft 258 kts 110°
2026-04-25 19:38 32.81612 -117.07179 6959 ft 258 kts 110°
2026-04-25 19:39 32.81045 -117.05166 6959 ft 258 kts 110°
2026-04-25 19:39 32.80479 -117.03146 6961 ft 258 kts 110°
2026-04-25 19:39 32.79910 -117.01123 6961 ft 258 kts 109°
2026-04-25 19:39 32.79342 -116.99103 6961 ft 258 kts 110°
2026-04-25 19:40 32.78775 -116.97083 6962 ft 258 kts 110°
2026-04-25 19:40 32.78075 -116.95137 6941 ft 254 kts 129°
2026-04-25 19:40 32.76681 -116.94025 6954 ft 242 kts 169°
2026-04-25 19:40 32.75056 -116.94109 6970 ft 234 kts 197°
2026-04-25 19:41 32.73439 -116.94525 6967 ft 238 kts 195°
2026-04-25 19:41 32.71800 -116.94954 6965 ft 239 kts 195°
2026-04-25 19:41 32.70162 -116.95381 6964 ft 240 kts 195°
2026-04-25 19:41 32.69623 -116.95521 6963 ft 240 kts 195°
2026-04-25 19:42 32.66904 -116.96234 6805 ft 246 kts 195°
2026-04-25 19:42 32.65203 -116.96684 6437 ft 254 kts 195°
2026-04-25 19:42 32.63456 -116.97143 6073 ft 258 kts 194°
2026-04-25 19:42 32.61707 -116.97602 5736 ft 258 kts 194°
2026-04-25 19:43 32.59936 -116.98066 5433 ft 258 kts 194°
2026-04-25 19:43 32.58269 -116.98585 5203 ft 224 kts 205°
2026-04-25 19:43 32.57300 -116.99821 4761 ft 203 kts 244°
2026-04-25 19:43 32.57142 -117.01199 4358 ft 147 kts 265°
2026-04-25 19:44 32.57087 -117.02337 3993 ft 134 kts 262°
2026-04-25 19:44 32.56885 -117.03406 3578 ft 134 kts 257°
2026-04-25 19:44 32.56684 -117.04475 3150 ft 134 kts 257°
2026-04-25 19:44 32.56550 -117.05566 2730 ft 133 kts 265°
2026-04-25 19:45 32.56496 -117.06649 2336 ft 131 kts 267°
2026-04-25 19:45 32.56454 -117.07713 1907 ft 131 kts 266°
2026-04-25 19:45 32.56408 -117.08733 1142 ft 119 kts 263°
2026-04-25 19:45 32.56319 -117.09625 643 ft 103 kts 266°
2026-04-25 19:46 32.56376 -117.10368 260 ft 84 kts 278°
2026-04-25 19:46 32.56505 -117.10973 42 ft 65 kts 282°
2026-04-25 19:46 32.56593 -117.11378 27 ft 20 kts 280°
2026-04-25 19:46 32.56649 -117.11437 27 ft 13 kts 29°
2026-04-25 19:47 32.56662 -117.11429 27 ft 1 kts 28°
2026-04-25 19:47 32.56664 -117.11427 27 ft 0 kts 28°
2026-04-25 19:47 32.56665 -117.11427 27 ft 6 kts 28°
2026-04-25 19:47 32.56692 -117.11195 28 ft 69 kts 105°
2026-04-25 19:48 32.56672 -117.10989 28 ft 8 kts 102°
2026-04-25 19:48 32.56677 -117.10931 29 ft 5 kts 14°
2026-04-25 19:48 32.56691 -117.10933 30 ft 2 kts 13°
2026-04-25 19:48 32.56690 -117.10933 30 ft 0 kts 14°